Showing default

AEROCUBE 6B, 40046

Orbit data source: Space-Track

AEROCUBE 6B, 40046 is a payload satellite owned by AERO (US) in SSO that was launched on Thu, 19 Jun 2014 UTC via a DNEPR launch vehicle from the Orenburg, Russia (OREN). Payload-class satellites include a variety of spacecraft equipped with specific instruments for various scientific and technological missions. These include communications satellites like Starlink; space stations such as the ISS; scientific satellites like the Hubble; Earth observation satellites from companies like Planet Labs, Umbra, and HawkEye 360; GPS; miniature CubeSats for education and research; and military/defense satellites.

Loading next visibility...
Identifier
40046, 2014-033AN
Orbit
SSO
Country
Flag of USUS
Related business
Manufacturer
AERO
Mission
Operational Defense Technology
Bus & Motor
CUBESAT 0.5U, Unknown motor
Mass
~0.5 kg wet, ~0.5 kg dry
Launch date (UTC)
2014-06-19 (11 years ago)
Launch vehicle
DNEPR
Launch site
Orenburg, Russia (OREN)
Object type
Payload
Rocket body
Debris
Shape & HBR
Box + 2 Pan, 0.1 m
Radar Cross Section
0.010 m², Small (<0.1 m²)

Expand to show TLE details & history
Last TLE update: 21 hours ago

TLE from 21 hours ago
0 AEROCUBE 6B
1 40046U 14033AN  25259.98519216  .00007082  00000-0  64841-3 0  9992
2 40046  97.6995  65.3585 0040567 200.7319 159.2258 14.94621670605875
Epoch: 2025-09-16T23:38Z
TLE epoch observation values (Epoch: 2025-09-16T23:38:40.602Z)
Latitude
-0.00001°
Longitude
74.52169°
Altitude
613.02 km
Speed
7.538 km/s
True Right ascension
04h 21m 26s
True Declination
0° 00' 00"
Sunlit
Object was in daylight at epoch
Visualization orbit readout
Latitude
Unknown
Longitude
Unknown
Altitude
Unknown
Speed
Unknown
Apparent Right ascension
Unknown
Apparent Declination
Unknown
Sunlit
N/A
Visualization observer readout
Local Sidereal Time
13:10:17
Azimuth
Unknown
Elevation
Unknown
Doppler factor
Unknown
Orbital elements
Apogee altitude
608.789 km
Perigee altitude
552.33 km
Semi-major axis
6,958.697 km
Eccentricity
0.00406
Inclination
97.6995°
RAAN
65.3585°
Arg. of periapsis
200.7319°
True anomaly
159.3899°
Mean anomaly
159.2258°
Eccentric anomaly
159.30793°
Mean motion
3.73896 °/min
Orbital period
96.28 mins
BSTAR
0.00064841
Loading maneuver chart data...
Computing Atmospheric mass density...
Loading historical data...
Loading historical data...
Loading historical data...
Loading historical data...
Loading historical data...
Loading historical data...
Loading historical data...

Documentation

Showing up to 5 results
|